Estación de San Pedro
Ultimos registro cada 15 minutos 23
| N° | Estación | Fecha / Hora | Temperatura | Humedad | Lluvia | Velocidad | Dirección | Radiación | Presion |
| 23 | San Pedro | 10-05-2026 05:30 | 0,9 | 99,5 | 0 | 0 | 119 | 0,6 | 997,9 |
| 22 | San Pedro | 10-05-2026 05:15 | 0,9 | 99,4 | 0 | 0 | 119 | 0,6 | 998,1 |
| 21 | San Pedro | 10-05-2026 05:00 | 1,2 | 99,4 | 0 | 0 | 95 | 0,6 | 997,9 |
| 20 | San Pedro | 10-05-2026 04:45 | 1,3 | 99,5 | 0 | 0 | 95 | 0,6 | 997,9 |
| 19 | San Pedro | 10-05-2026 04:30 | 1,4 | 99,4 | 0 | 0 | 95 | 0,6 | 997,8 |
| 18 | San Pedro | 10-05-2026 04:15 | 1,2 | 99 | 0 | 0 | 105 | 0,6 | 997,9 |
| 17 | San Pedro | 10-05-2026 04:00 | 0,8 | 98,7 | 0 | 0 | 112 | 0,6 | 997,7 |
| 16 | San Pedro | 10-05-2026 03:45 | 1,2 | 98 | 0 | 0 | 97 | 0,6 | 998,1 |
| 15 | San Pedro | 10-05-2026 03:30 | 1,6 | 98 | 0 | 0 | 95 | 0,6 | 998,2 |
| 14 | San Pedro | 10-05-2026 03:15 | 1,6 | 97,7 | 0 | 0 | 95 | 0,6 | 998,4 |
| 13 | San Pedro | 10-05-2026 03:00 | 2 | 97,8 | 0 | 0 | 95 | 0,6 | 998,4 |
| 12 | San Pedro | 10-05-2026 02:45 | 2 | 98,3 | 0 | 0 | 111 | 0,6 | 998,4 |
| 11 | San Pedro | 10-05-2026 02:30 | 1,4 | 97,8 | 0 | 0 | 128 | 0,6 | 998,6 |
| 10 | San Pedro | 10-05-2026 02:15 | 2,7 | 97,5 | 0 | 0 | 95 | 0,6 | 998,6 |
| 9 | San Pedro | 10-05-2026 02:00 | 2,5 | 96,6 | 0 | 0 | 95 | 0,6 | 998,7 |
| 8 | San Pedro | 10-05-2026 01:45 | 3,3 | 97,9 | 0 | 0 | 95 | 0,6 | 998,7 |
| 7 | San Pedro | 10-05-2026 01:30 | 2,5 | 96,5 | 0 | 0 | 104 | 0,6 | 998,9 |
| 6 | San Pedro | 10-05-2026 01:15 | 3 | 97,9 | 0 | 0 | 136 | 0,6 | 998,8 |
| 5 | San Pedro | 10-05-2026 01:00 | 3,1 | 96,2 | 0 | 0 | 136 | 0,6 | 999 |
| 4 | San Pedro | 10-05-2026 00:45 | 3,2 | 95,8 | 0 | 0 | 132 | 0,6 | 998,9 |
| 3 | San Pedro | 10-05-2026 00:30 | 3,9 | 95,1 | 0 | 0 | 95 | 0,6 | 998,9 |
| 2 | San Pedro | 10-05-2026 00:15 | 4,4 | 95,9 | 0 | 0 | 95 | 0,6 | 999,1 |
| 1 | San Pedro | 10-05-2026 00:00 | 4,4 | 95,3 | 0 | 0 | 95 | 0,6 | 999 |